Beach, ND

8:08 PM MST on February 13, 2016 (GMT -0700)
Beach

Weather History for K20U - October, 2011

Change the Weather History Date:

Saturday, October 8, 2011

  Actual Average (KGDV) Record (KGDV)
Temperature  
Mean Temperature 47 °F -  
Max Temperature 53 °F 59 °F 78 °F (2010)
Min Temperature 41 °F 34 °F 24 °F (2000)
Degree Days  
Heating Degree Days 18    
Moisture  
Dew Point 41 °F    
Average Humidity 77    
Maximum Humidity 93    
Minimum Humidity 54    
Precipitation  
Precipitation 0.00 in - - ()
Sea Level Pressure  
Sea Level Pressure 30.09 in    
Wind  
Wind Speed 14 mph (NW)    
Max Wind Speed 23 mph    
Max Gust Speed 29 mph    
Visibility 10 miles    
Events      
Averages and records for this station are not official NWS values.
T = Trace of Precipitation, MM = Missing Value Source: NWS Daily Summary

Daily Weather History Graph

Daily Weather History Graph

Search for Another Location

Airport or City:

Trip Planner

Search our weather history database for the weather conditions in past years. The results will help you decide how hot, cold, wet, or windy it might be!

Date:

Astronomy

Oct. 08, 2011 Rise Set
Actual Time 7:03 AM MDT 6:22 PM MDT
Civil Twilight 6:33 AM MDT 6:52 PM MDT
Nautical Twilight 5:58 AM MDT 7:27 PM MDT
Astronomical Twilight 5:22 AM MDT 8:03 PM MDT
Moon 4:41 PM MDT (10/8) 3:43 AM MDT (10/8)
Length of Visible Light 12h 19m
Length of Day
11h 18m
Waxing Gibbous, 90% of the Moon is Illuminated
Oct 8
Waxing Gibbous
Oct 11
Full
Oct 19
Last Quarter
Oct 26
New
Nov 2
First Quarter

Hourly Weather History & Observations

Time (MDT) Temp. Windchill Dew Point Humidity Pressure Visibility Wind Dir Wind Speed Gust Speed Precip Events Conditions
12:15 AM 48.2 °F - 46.4 °F 93% 29.86 in 10.0 mi WNW 18.4 mph 24.2 mph N/A   Overcast
12:35 AM 48.2 °F - 46.4 °F 93% 29.86 in 10.0 mi WNW 11.5 mph 17.3 mph N/A   Overcast
1:15 AM 48.2 °F - 46.4 °F 93% 29.87 in 10.0 mi West 15.0 mph 20.7 mph N/A   Overcast
1:35 AM 48.2 °F - 46.4 °F 93% 29.88 in 10.0 mi West 15.0 mph 19.6 mph N/A   Overcast
1:55 AM 48.2 °F - 46.4 °F 93% 29.87 in 10.0 mi WNW 20.7 mph 24.2 mph N/A   Overcast
2:15 AM 48.2 °F - 44.6 °F 87% 29.87 in 10.0 mi WNW 23.0 mph 28.8 mph N/A   Overcast
2:35 AM 48.2 °F - 44.6 °F 87% 29.87 in 10.0 mi WNW 19.6 mph 25.3 mph N/A   Overcast
2:55 AM 48.2 °F - 42.8 °F 82% 29.86 in 10.0 mi NW 19.6 mph 26.5 mph N/A   Overcast
3:15 AM 46.4 °F 39.5 °F 42.8 °F 87% 29.88 in 10.0 mi NW 17.3 mph - N/A   Scattered Clouds
3:35 AM 46.4 °F 39.8 °F 42.8 °F 87% 29.91 in 10.0 mi WNW 16.1 mph 20.7 mph N/A   Mostly Cloudy
3:55 AM 48.2 °F - 42.8 °F 82% 29.95 in 10.0 mi WNW 13.8 mph - N/A   Overcast
4:35 AM 48.2 °F - 41.0 °F 76% 29.99 in 10.0 mi WNW 10.4 mph - N/A   Overcast
4:55 AM 46.4 °F 40.4 °F 41.0 °F 81% 29.99 in 10.0 mi NW 13.8 mph - N/A   Overcast
5:15 AM 46.4 °F 41.1 °F 41.0 °F 81% 30.02 in 10.0 mi WNW 11.5 mph - N/A   Overcast
5:35 AM 46.4 °F 41.1 °F 41.0 °F 81% 30.02 in 10.0 mi WNW 11.5 mph - N/A   Overcast
5:55 AM 46.4 °F 41.1 °F 41.0 °F 81% 30.02 in 10.0 mi WNW 11.5 mph - N/A   Overcast
6:15 AM 46.4 °F 41.1 °F 41.0 °F 81% 30.04 in 10.0 mi West 11.5 mph 18.4 mph N/A   Overcast
6:55 AM 46.4 °F 40.7 °F 41.0 °F 81% 30.04 in 10.0 mi WNW 12.7 mph - N/A   Overcast
7:15 AM 46.4 °F 39.8 °F 41.0 °F 81% 30.04 in 10.0 mi WNW 16.1 mph - N/A   Overcast
7:35 AM 46.4 °F 40.4 °F 41.0 °F 81% 30.06 in 10.0 mi WNW 13.8 mph - N/A   Scattered Clouds
7:55 AM 46.4 °F 41.1 °F 41.0 °F 81% 30.08 in 10.0 mi West 11.5 mph 19.6 mph N/A   Mostly Cloudy
8:15 AM 46.4 °F 40.7 °F 41.0 °F 81% 30.09 in 10.0 mi WNW 12.7 mph 18.4 mph N/A   Overcast
8:35 AM 46.4 °F 41.5 °F 41.0 °F 81% 30.10 in 10.0 mi WNW 10.4 mph 17.3 mph N/A   Overcast
8:55 AM 46.4 °F 40.7 °F 41.0 °F 81% 30.11 in 10.0 mi WNW 12.7 mph - N/A   Overcast
9:15 AM 46.4 °F 41.1 °F 41.0 °F 81% 30.11 in 10.0 mi NW 11.5 mph 19.6 mph N/A   Overcast
9:35 AM 46.4 °F 40.1 °F 41.0 °F 81% 30.12 in 10.0 mi NW 15.0 mph - N/A   Overcast
9:55 AM 48.2 °F - 41.0 °F 76% 30.12 in 10.0 mi NW 16.1 mph 23.0 mph N/A   Overcast
10:15 AM 48.2 °F - 41.0 °F 76% 30.13 in 10.0 mi NW 17.3 mph 21.9 mph N/A   Overcast
10:35 AM 48.2 °F - 41.0 °F 76% 30.13 in 10.0 mi NW 16.1 mph - N/A   Overcast
10:55 AM 48.2 °F - 39.2 °F 71% 30.13 in 10.0 mi NW 12.7 mph 19.6 mph N/A   Overcast
11:15 AM 48.2 °F - 41.0 °F 76% 30.14 in 10.0 mi NW 12.7 mph - N/A   Overcast
11:35 AM 48.2 °F - 41.0 °F 76% 30.15 in 10.0 mi NW 12.7 mph - N/A   Overcast
11:55 AM 48.2 °F - 39.2 °F 71% 30.16 in 10.0 mi NW 12.7 mph - N/A   Overcast
12:15 PM 48.2 °F - 41.0 °F 76% 30.17 in 10.0 mi WNW 11.5 mph - N/A   Overcast
12:35 PM 50.0 °F - 41.0 °F 71% 30.18 in 10.0 mi WNW 12.7 mph - N/A   Overcast
12:55 PM 50.0 °F - 41.0 °F 71% 30.18 in 10.0 mi WNW 12.7 mph - N/A   Overcast
1:15 PM 50.0 °F - 41.0 °F 71% 30.18 in 10.0 mi NW 12.7 mph - N/A   Overcast
1:35 PM 50.0 °F - 41.0 °F 71% 30.17 in 10.0 mi NW 11.5 mph - N/A   Mostly Cloudy
1:55 PM 50.0 °F - 41.0 °F 71% 30.17 in 10.0 mi NW 16.1 mph - N/A   Mostly Cloudy
2:15 PM 50.0 °F - 41.0 °F 71% 30.17 in 10.0 mi NW 15.0 mph 19.6 mph N/A   Overcast
2:35 PM 50.0 °F - 41.0 °F 71% 30.17 in 10.0 mi NW 16.1 mph - N/A   Overcast
2:55 PM 51.8 °F - 41.0 °F 67% 30.17 in 10.0 mi NW 16.1 mph 19.6 mph N/A   Overcast
3:15 PM 51.8 °F - 39.2 °F 62% 30.17 in 10.0 mi NNW 15.0 mph - N/A   Overcast
3:35 PM 53.6 °F - 39.2 °F 58% 30.16 in 10.0 mi NW 15.0 mph - N/A   Overcast
3:55 PM 53.6 °F - 39.2 °F 58% 30.17 in 10.0 mi North 12.7 mph - N/A   Overcast
4:15 PM 51.8 °F - 39.2 °F 62% 30.17 in 10.0 mi NNW 13.8 mph - N/A   Overcast
4:55 PM 51.8 °F - 39.2 °F 62% 30.17 in 10.0 mi North 10.4 mph - N/A   Overcast
5:15 PM 53.6 °F - 37.4 °F 54% 30.18 in 10.0 mi North 13.8 mph - N/A   Overcast
5:35 PM 51.8 °F - 37.4 °F 58% 30.20 in 10.0 mi North 11.5 mph - N/A   Overcast
5:55 PM 50.0 °F - 39.2 °F 66% 30.21 in 10.0 mi North 6.9 mph - N/A   Mostly Cloudy
6:15 PM 48.2 °F - 37.4 °F 66% 30.21 in 10.0 mi Calm Calm - N/A   Partly Cloudy
6:35 PM 46.4 °F - 39.2 °F 76% 30.22 in 10.0 mi Calm Calm - N/A   Scattered Clouds
6:55 PM 46.4 °F - 39.2 °F 76% 30.23 in 10.0 mi Calm Calm - N/A   Mostly Cloudy
7:15 PM 44.6 °F 43.1 °F 39.2 °F 81% 30.24 in 10.0 mi SSW 3.5 mph - N/A   Mostly Cloudy
7:35 PM 44.6 °F - 39.2 °F 81% 30.24 in 10.0 mi Calm Calm - N/A   Mostly Cloudy
8:15 PM 41.0 °F 37.1 °F 37.4 °F 87% 30.24 in 10.0 mi NW 5.8 mph - N/A   Partly Cloudy
8:35 PM 41.0 °F - 37.4 °F 87% 30.25 in 10.0 mi Calm Calm - N/A   Clear
8:55 PM 39.2 °F 37.0 °F 37.4 °F 93% 30.26 in 10.0 mi SSW 3.5 mph - N/A   Clear
9:15 PM 37.4 °F - 35.6 °F 93% 30.26 in 10.0 mi Calm Calm - N/A   Scattered Clouds
9:35 PM 37.4 °F - 35.6 °F 93% 30.26 in 10.0 mi Calm Calm - N/A   Scattered Clouds
9:55 PM 37.4 °F - 35.6 °F 93% 30.27 in 10.0 mi Calm Calm - N/A   Partly Cloudy
10:15 PM 35.6 °F - 33.8 °F 93% 30.27 in 10.0 mi Calm Calm - N/A   Clear
10:35 PM 33.8 °F - 32.0 °F 93% 30.27 in 10.0 mi Calm Calm - N/A   Clear
10:55 PM 35.6 °F - 35.6 °F 100% 30.27 in 10.0 mi Calm Calm - N/A   Clear
11:15 PM 35.6 °F - 32.0 °F 87% 30.27 in 10.0 mi Calm Calm - N/A   Clear
11:35 PM 35.6 °F - 32.0 °F 87% 30.27 in 10.0 mi Calm Calm - N/A   Clear
11:55 PM 33.8 °F - 32.0 °F 93% 30.27 in 10.0 mi Calm Calm - N/A   Scattered Clouds